Regional Weather Roundup
Issued by NWS

Home | Current Version | Previous Version | Text Only | Print | Product List | Glossary Off
Versions: 1 2 3 4 5 6 7 8 9 10 11 12 13 14 15 16 17 18 19 20 21 22 23 24 25 26 27 28

000
ASUS45 KBOU 160910
RWRCO

WEATHER ROUNDUP FOR COLORADO
NATIONAL WEATHER SERVICE DENVER/BOULDER CO
200 AM MST TUE JAN 16 2018

NOTE: "FAIR" INDICATES FEW OR NO CLOUDS BELOW 12000 FEET WITH NO
SIGNIFICANT WEATHER AND/OR OBSTRUCTIONS TO VISIBILITY.

COZ001>005-013-030-031-161000-
...NORTHWEST COLORADO...

CITY           SKY/WX    TMP DP  RH WIND       PRES   REMARKS
CRAIG          FAIR       1  -5  75 SE5       30.45S WCI  -9
HAYDEN         FAIR       6  -4  63 E12       30.44S WCI  -9
MEEKER         FAIR      14   7  73 NE7       30.42R WCI   4
RABBIT EARS PA FAIR       5   3  92 S6        30.29S WCI  -6
STEAMBOAT SPGS FAIR       0  -5  77 CALM      30.43R
WALDEN         FAIR      -6 -13  71 SE7       30.41R WCI -20
$$

COZ006>008-011-161000-
...WEST CENTRAL VALLEYS...

CITY           SKY/WX    TMP DP  RH WIND       PRES   REMARKS
GRAND JUNCTION FAIR      24  11  57 E8        30.38R WCI  15
MONTROSE       FAIR      20  16  84 SE10      30.40R WCI   9
EAGLE          FAIR      12   7  80 CALM      30.45R
RIFLE          FAIR      21  15  78 E5        30.41S WCI  15
DELTA          FAIR      27  18  68 CALM      30.40R
NUCLA          FAIR      27  19  74 SE5       30.37R WCI  21
$$

COZ017>023-064>068-161000-
...SOUTHWEST COLORADO...

CITY           SKY/WX    TMP DP  RH WIND       PRES   REMARKS
DURANGO        FAIR      19  17  92 NE7       30.29R WCI  10
CORTEZ         FAIR      18  15  88 E5        30.29R WCI  11
PAGOSA SPRINGS FAIR      20  18  92 CALM      30.30R
TELLURIDE      FAIR      18   9  69 SE7       30.31S WCI   9
WOLF CREEK PAS FAIR      18 -27  12 CALM      30.35R
$$

COZ009-010-012-014-032>034-037-058>063-161000-
...CENTRAL COLORADO...

CITY           SKY/WX    TMP DP  RH WIND       PRES   REMARKS
ASPEN          FAIR      11   6  81 SW7       30.35S WCI   0
BUENA VISTA    FAIR       6   2  85 CALM      30.36S
COPPER MTN     NOT AVBL
BERTHOUD PASS  FAIR       0 -13  55 NW15G26   30.22R WCI -20
COTTONWOOD PAS NOT AVBL
GUNNISON       FAIR       8   6  92 CALM      30.36R
KREMMLING      NOT AVBL
LEADVILLE      FAIR       2  -7  66 NE12      30.29S WCI -15
MONARCH PASS   FAIR      10   1  67 W16       30.37R WCI  -7
SALIDA         CLOUDY    19  12  73 SW3       30.45F
SUNLIGHT       FAIR       9   5  85 CALM      30.34S
WILKERSON PASS FAIR      10 -24  20 N12       30.26S WCI  -4
$$

COZ069>075-161000-
...SAN LUIS VALLEY/SANGRE DE CRISTO MOUNTAINS...

CITY           SKY/WX    TMP DP  RH WIND       PRES   REMARKS
ALAMOSA        MOCLDY     5   2  87 CALM      30.33R
DEL NORTE      FAIR       8   3  81 CALM      30.32R
LA VETA PASS   CLOUDY    14  12  92 SW9         N/A  FOG     WCI   2
SAGUACHE       FAIR      14   9  79 E7        30.33R WCI   4
$$

COZ035-036-038>040-161000-
...NORTHERN COLORADO FRONT RANGE...

CITY           SKY/WX    TMP DP  RH WIND       PRES   REMARKS
DENVER INTL AP FAIR      -3 -11  68 SE12      30.49R WCI -21
DMNS CITY PARK NOT AVBL
AURORA         CLEAR      1  -5  74 SE8       30.48R WCI -12
FRONT RANGE AP FAIR      -1  -8  73 S6        30.50R WCI -13
ERIE MUNI ARPT FAIR      -1  -4  83 CALM      30.58S
BOULDER MUN AP FAIR       7   0  72 SE3       30.51R
CENTENNIAL     FAIR       1  -3  83 CALM      30.46R
BROOMFIELD     FAIR       7  -2  66 CALM      30.48R
FORT COLLINS   FAIR       1  -6  72 SW5       30.53S WCI  -9
LONGMONT       FAIR      -1  -7  75 CALM      30.55S
$$

COZ041-046-047-076>085-087-088-161000-
...PIKES PEAK/PALMER DIVIDE AND SOUTHERN FOOTHILLS...

CITY           SKY/WX    TMP DP  RH WIND       PRES   REMARKS
COLO. SPRINGS  FAIR      10   4  76 SW5       30.45S WCI   2
A. F. ACADEMY  CLOUDY    11   7  83 CALM      30.42R
SCHRIEVER AFB  FLURRIES   3   0  87 W8        30.45R WCI -10
CHEYENNE MTN   FAIR       9   7  92 CALM      30.34S
ELLICOTT         N/A    N/A N/A N/A CALM        N/A
FALCON         LGT SNOW   4   1  89 W8        30.41R WCI -10
FORT CARSON    CLOUDY     9   2  73 S3        30.46R
LIMON          FAIR      -5 -10  79 CALM      30.50F
MONUMENT HILL  FAIR      -2  -6  84 S8        30.40R WCI -17
CANON CITY     CLOUDY    16  10  79 E7        30.49R WCI   6
WALSENBURG     FAIR       0  -4  85 W3        30.45F
TRINIDAD       FAIR       6  -1  73 E6        30.49R WCI  -4
$$

COZ042>045-048>051-090-091-161000-
...NORTHEAST COLORADO...

CITY           SKY/WX    TMP DP  RH WIND       PRES   REMARKS
GREELEY ARPT   FAIR      -4  -9  79 CALM      30.56S
AKRON          FAIR      -6 -10  83 W9        30.54S WCI -23
BURLINGTON     FAIR      -4  -8  83 NW8       30.59S WCI -19
WRAY           FAIR      -6  -9  84 W5        30.65R WCI -17
YUMA           FAIR      -9 -15  77 W8        30.60R WCI -26
STERLING       FAIR      -6  -9  84 S5        30.60R WCI -17
HOLYOKE        FAIR       0  -8  71 NW7       30.63S WCI -13
FORT MORGAN    FAIR      -2 -10  71 W5        30.57S WCI -13
$$

COZ086-089-092>099-161000-
...SOUTHEAST COLORADO...

CITY           SKY/WX    TMP DP  RH WIND       PRES   REMARKS
PUEBLO         FAIR       9   0  67 E3        30.55S
LA JUNTA       FAIR       8  -2  63 SE5       30.59F WCI   0
LAMAR          FAIR      -5 -10  79 S5        30.64R WCI -16
SPRINGFIELD      N/A     -4  -8  83 N7        30.58R WCI -18
$$




USA.gov is the U.S. government's official web portal to all federal, state and local government web resources and services.